Location: Diebersbach
(48.5163°N, 8.0558°E)
Time: 13:12:18
(UTC+00:00)

USA 229 DEB - Visible Passes

Search period start: 22 October 2021 00:00
Search period end: 01 November 2021 00:00
Orbit: 948 x 1264 km, 63.4° (Epoch: 15 October)

Date Brightness Start Highest point End Pass type
(mag) Time Alt. Az. Time Alt. Az. Time Alt. Az.
22 Oct 5.2 01:28:27 33° E 01:28:27 33° E 01:32:58 10° ESE visible
22 Oct 3.8 03:15:59 58° W 03:17:04 65° SW 03:24:44 10° SSE visible
22 Oct 5.3 05:03:32 11° WNW 05:06:52 15° WSW 05:10:58 10° SW visible
22 Oct 4.8 17:08:29 10° SSE 17:12:42 19° ESE 17:17:04 10° ENE visible
22 Oct 3.4 18:56:11 10° SW 19:02:34 85° SE 19:04:46 46° NE visible
22 Oct 5.2 20:48:21 10° W 20:52:15 29° WNW 20:52:15 29° WNW visible
23 Oct 6.2 00:46:33 13° E 00:46:33 13° E 00:47:21 10° E visible
23 Oct 4.2 02:34:07 57° SE 02:34:07 57° SE 02:40:04 10° SE visible
23 Oct 4.8 04:21:40 24° W 04:22:31 24° WSW 04:28:25 10° SSW visible
23 Oct 3.6 18:11:39 10° SSW 18:17:52 58° ESE 18:22:03 23° NE visible
23 Oct 4.5 20:02:54 10° WSW 20:09:04 43° NNW 20:09:32 43° NNW visible
23 Oct 6.2 21:56:28 10° WNW 21:57:00 12° WNW 21:57:00 12° WNW visible
24 Oct 5.5 01:52:20 24° ESE 01:52:20 24° ESE 01:55:05 10° SE visible
24 Oct 4.7 03:39:54 32° SW 03:39:54 32° SW 03:44:58 10° S visible
24 Oct 4.1 17:27:30 10° S 17:33:18 38° ESE 17:39:11 11° NE visible
24 Oct 4.1 19:17:38 10° WSW 19:23:59 57° NW 19:26:39 36° NNE visible
24 Oct 5.6 21:10:52 10° WNW 21:14:06 22° NW 21:14:06 22° NW visible
25 Oct 5.3 02:58:09 23° S 02:58:09 23° S 03:00:56 10° SSE visible
25 Oct 4.6 16:43:53 10° SSE 16:48:52 25° ESE 16:54:06 10° ENE visible
25 Oct 3.6 18:32:37 10° SW 18:39:02 79° NW 18:43:38 23° NE visible
25 Oct 5.1 20:25:16 10° W 20:31:03 31° NNW 20:31:05 31° NNW visible
26 Oct 6.1 02:16:22 11° SSE 02:16:22 11° SSE 02:16:29 10° SSE visible
26 Oct 3.5 17:47:53 10° SSW 17:54:14 74° SE 18:00:30 13° NE visible
26 Oct 4.8 19:39:43 10° W 19:45:45 37° NNW 19:47:57 30° N visible
26 Oct 6.0 21:33:21 10° NW 21:35:24 17° NW 21:35:24 17° NW visible
27 Oct 3.8 17:03:31 10° SSW 17:09:36 49° ESE 17:16:06 10° NE visible
27 Oct 4.4 18:54:20 10° WSW 19:00:36 48° NW 19:04:44 23° NNE visible
27 Oct 5.5 20:47:49 10° WNW 20:52:11 24° NNW 20:52:11 24° NNW visible
28 Oct 3.9 18:09:11 10° SW 18:15:34 65° NW 18:21:28 15° NE visible
28 Oct 5.2 20:02:12 10° WNW 20:07:51 28° NNW 20:08:54 27° N visible
28 Oct 6.2 21:55:29 10° NW 21:56:20 13° NW 21:56:20 13° NW visible
29 Oct 3.6 17:24:16 10° SW 17:30:41 90° NW 17:37:36 10° NE visible
29 Oct 5.0 19:16:37 10° W 19:22:29 33° NNW 19:25:34 24° NNE visible
29 Oct 5.8 21:10:11 10° NW 21:13:00 19° NNW 21:13:00 19° NNW visible
30 Oct 3.7 16:39:40 10° SSW 16:45:56 63° SE 16:52:40 10° NE visible
30 Oct 4.7 18:31:08 10° WSW 18:37:15 41° NNW 18:42:12 17° NNE visible
30 Oct 5.5 20:24:44 10° WNW 20:29:37 24° NNW 20:29:37 24° NNW visible
31 Oct 4.2 17:45:49 10° WSW 17:52:09 54° NW 17:58:48 11° NE visible
31 Oct 5.3 19:39:09 10° WNW 19:44:40 26° NNW 19:46:14 24° N visible
31 Oct 6.1 21:32:09 10° NW 21:33:40 16° NNW 21:33:40 16° NNW visible
